This is the latest recevied weather packets stored in our database for station/object KF4LQQ-13. If no packets are shown the sender has not sent any weather packets the latest 10 day(s).
| Time | Temp. | Humidity | Pressure | Rain* | Wind** | Luminosity | Snow |
|---|---|---|---|---|---|---|---|
| 1777994781 | 26.11° C | - | 1013.8 hPa | 0 mm | - | - | - |
| 1777994181 | 26.11° C | - | 1013.9 hPa | 0 mm | - | - | - |
| 1777993579 | 25.56° C | - | 1013.9 hPa | 0 mm | - | - | - |
| 1777992977 | 25.56° C | - | 1013.9 hPa | 0 mm | - | - | - |
| 1777992377 | 25° C | - | 1013.7 hPa | 0 mm | - | - | - |
| 1777991777 | 24.44° C | - | 1013.5 hPa | 0 mm | - | - | - |
| 1777991330 | 23.89° C | - | 1013.3 hPa | 0 mm | - | - | - |
| 1777991177 | 24.44° C | - | 1013.4 hPa | 0 mm | - | - | - |
| 1777990576 | 23.89° C | - | 1013.3 hPa | 0 mm | - | - | - |
| 1777989976 | 23.33° C | - | 1013.2 hPa | 0 mm | - | - | - |
| 1777989375 | 23.33° C | - | 1013.2 hPa | 0 mm | - | - | - |
| 1777988775 | 22.78° C | - | 1013.1 hPa | 0 mm | - | - | - |
| 1777988175 | 22.78° C | - | 1013.1 hPa | 0 mm | - | - | - |
| 1777987574 | 22.78° C | - | 1013.1 hPa | 0 mm | - | - | - |
| 1777986974 | 22.22° C | - | 1013.1 hPa | 0 mm | - | - | - |
| 1777986374 | 22.22° C | - | 1013.1 hPa | 0 mm | - | - | - |
| 1777985774 | 21.67° C | - | 1013 hPa | 0 mm | - | - | - |
| 1777985173 | 21.67° C | - | 1013.1 hPa | 0 mm | - | - | - |
| 1777984572 | 21.67° C | - | 1013.1 hPa | 0 mm | - | - | - |
| 1777983972 | 21.11° C | - | 1013.1 hPa | 0 mm | - | - | - |
| 1777983371 | 21.11° C | - | 1013 hPa | 0 mm | - | - | - |
| 1777982771 | 21.11° C | - | 1012.9 hPa | 0 mm | - | - | - |
| 1777982168 | 21.11° C | - | 1012.8 hPa | 0 mm | - | - | - |
| 1777981567 | 21.11° C | - | 1012.6 hPa | 0 mm | - | - | - |
| 1777980966 | 21.11° C | - | 1012.4 hPa | 0 mm | - | - | - |
* Rain since midnight (hover to see other rain measurements)
** Current wind speed in m/s (hover to see current wind gust speed)